Time,TemperatureF,DewpointF,PressureIn,WindDirection,WindDirectionDegrees,WindSpeedMPH,WindSpeedGustMPH,Humidity,HourlyPrecipIn,Conditions,Clouds,dailyrainin,SolarRadiationWatts/m^2,SoftwareType,DateUTC
2014-02-07 00:04:00,73.2,71.4,30.08,SE,143,0.0,0.0,94,0.00,,,0.00,0.0,WUHU216DAVISVP2,2014-02-07 05:04:00,
2014-02-07 00:09:00,73.0,71.1,30.07,SE,143,0.0,0.0,94,0.00,,,0.00,0.0,WUHU216DAVISVP2,2014-02-07 05:09:00,
2014-02-07 00:14:00,72.9,71.0,30.07,SE,143,0.0,1.0,94,0.00,,,0.00,0.0,WUHU216DAVISVP2,2014-02-07 05:14:00,
2014-02-07 00:19:00,72.9,71.4,30.07,SE,143,0.0,1.0,95,0.00,,,0.00,0.0,WUHU216DAVISVP2,2014-02-07 05:19:00,
2014-02-07 00:24:00,72.8,71.3,30.07,SE,143,0.0,1.0,95,0.00,,,0.00,0.0,WUHU216DAVISVP2,2014-02-07 05:24:00,
2014-02-07 00:29:00,72.8,71.3,30.07,SE,143,0.0,1.0,95,0.00,,,0.00,0.0,WUHU216DAVISVP2,2014-02-07 05:29:00,
2014-02-07 00:34:00,72.7,71.2,30.07,SE,143,0.0,0.0,95,0.00,,,0.00,0.0,WUHU216DAVISVP2,2014-02-07 05:34:00,
2014-02-07 00:39:00,72.3,70.4,30.07,SE,143,0.0,0.0,94,0.00,,,0.00,0.0,WUHU216DAVISVP2,2014-02-07 05:39:00,
2014-02-07 00:44:00,72.4,70.9,30.07,SE,143,0.0,0.0,95,0.00,,,0.00,0.0,WUHU216DAVISVP2,2014-02-07 05:44:00,
2014-02-07 00:49:00,72.2,70.7,30.07,SE,143,0.0,0.0,95,0.00,,,0.00,0.0,WUHU216DAVISVP2,2014-02-07 05:49:00,
2014-02-07 00:55:00,72.0,70.5,30.07,SE,143,0.0,0.0,95,0.00,,,0.00,0.0,WUHU216DAVISVP2,2014-02-07 05:55:00,
2014-02-07 01:00:00,71.9,70.4,30.07,SE,143,0.0,0.0,95,0.00,,,0.00,0.0,WUHU216DAVISVP2,2014-02-07 06:00:00,
2014-02-07 01:05:00,71.8,70.3,30.07,SE,143,0.0,0.0,95,0.00,,,0.00,0.0,WUHU216DAVISVP2,2014-02-07 06:05:00,
2014-02-07 01:10:00,71.8,70.3,30.07,SE,143,0.0,0.0,95,0.00,,,0.00,0.0,WUHU216DAVISVP2,2014-02-07 06:10:00,
2014-02-07 01:15:00,71.7,70.2,30.07,SE,143,0.0,0.0,95,0.00,,,0.00,0.0,WUHU216DAVISVP2,2014-02-07 06:15:00,
2014-02-07 01:20:00,71.6,70.1,30.06,SE,143,0.0,0.0,95,0.00,,,0.00,0.0,WUHU216DAVISVP2,2014-02-07 06:20:00,
2014-02-07 01:25:00,71.5,70.0,30.06,SE,143,0.0,0.0,95,0.00,,,0.00,0.0,WUHU216DAVISVP2,2014-02-07 06:25:00,
2014-02-07 01:30:00,71.2,69.7,30.06,SE,143,0.0,0.0,95,0.00,,,0.00,0.0,WUHU216DAVISVP2,2014-02-07 06:30:00,
2014-02-07 01:35:00,71.0,69.5,30.06,SE,143,0.0,0.0,95,0.00,,,0.00,0.0,WUHU216DAVISVP2,2014-02-07 06:35:00,
2014-02-07 01:40:00,70.8,69.3,30.06,SE,143,0.0,0.0,95,0.00,,,0.00,0.0,WUHU216DAVISVP2,2014-02-07 06:40:00,
2014-02-07 01:45:00,70.7,69.2,30.05,SE,143,0.0,0.0,95,0.00,,,0.00,0.0,WUHU216DAVISVP2,2014-02-07 06:45:00,
2014-02-07 01:50:00,70.6,69.4,30.05,SE,143,0.0,0.0,96,0.00,,,0.00,0.0,WUHU216DAVISVP2,2014-02-07 06:50:00,
2014-02-07 01:55:00,70.5,69.0,30.05,SE,143,0.0,0.0,95,0.00,,,0.00,0.0,WUHU216DAVISVP2,2014-02-07 06:55:00,
2014-02-07 02:00:00,70.1,68.6,30.05,SE,143,0.0,0.0,95,0.00,,,0.00,0.0,WUHU216DAVISVP2,2014-02-07 07:00:00,
2014-02-07 02:05:00,70.1,68.9,30.05,SE,143,0.0,0.0,96,0.00,,,0.00,0.0,WUHU216DAVISVP2,2014-02-07 07:05:00,
2014-02-07 02:11:00,70.1,68.9,30.05,SE,143,0.0,0.0,96,0.00,,,0.00,0.0,WUHU216DAVISVP2,2014-02-07 07:11:00,
2014-02-07 02:16:00,69.9,68.7,30.05,SE,143,0.0,0.0,96,0.00,,,0.00,0.0,WUHU216DAVISVP2,2014-02-07 07:16:00,
2014-02-07 02:21:00,69.7,68.2,30.05,SE,143,0.0,0.0,95,0.00,,,0.00,0.0,WUHU216DAVISVP2,2014-02-07 07:21:00,
2014-02-07 02:26:00,69.8,68.6,30.05,SE,143,0.0,0.0,96,0.00,,,0.00,0.0,WUHU216DAVISVP2,2014-02-07 07:26:00,
2014-02-07 02:31:00,69.8,68.6,30.05,SE,143,0.0,0.0,96,0.00,,,0.00,0.0,WUHU216DAVISVP2,2014-02-07 07:31:00,
2014-02-07 02:36:00,69.6,68.4,30.05,SE,143,0.0,0.0,96,0.00,,,0.00,0.0,WUHU216DAVISVP2,2014-02-07 07:36:00,
2014-02-07 02:41:00,69.5,68.3,30.05,SE,143,0.0,0.0,96,0.00,,,0.00,0.0,WUHU216DAVISVP2,2014-02-07 07:41:00,
2014-02-07 02:46:00,69.3,68.1,30.05,SE,143,0.0,0.0,96,0.00,,,0.00,0.0,WUHU216DAVISVP2,2014-02-07 07:46:00,
2014-02-07 02:51:00,69.3,68.1,30.05,SE,143,0.0,0.0,96,0.00,,,0.00,0.0,WUHU216DAVISVP2,2014-02-07 07:51:00,
2014-02-07 02:56:00,69.2,68.0,30.04,SE,143,0.0,0.0,96,0.00,,,0.00,0.0,WUHU216DAVISVP2,2014-02-07 07:56:00,
2014-02-07 03:01:00,69.0,67.8,30.04,SE,143,0.0,0.0,96,0.00,,,0.00,0.0,WUHU216DAVISVP2,2014-02-07 08:01:00,
2014-02-07 03:06:00,69.1,67.9,30.04,SE,143,0.0,0.0,96,0.00,,,0.00,0.0,WUHU216DAVISVP2,2014-02-07 08:06:00,
2014-02-07 03:11:00,69.2,68.0,30.04,SE,143,0.0,0.0,96,0.00,,,0.00,0.0,WUHU216DAVISVP2,2014-02-07 08:11:00,
2014-02-07 03:16:00,69.1,67.9,30.04,SE,143,0.0,0.0,96,0.00,,,0.00,0.0,WUHU216DAVISVP2,2014-02-07 08:16:00,
2014-02-07 03:21:00,68.9,67.7,30.04,SE,143,0.0,0.0,96,0.00,,,0.00,0.0,WUHU216DAVISVP2,2014-02-07 08:21:00,
2014-02-07 03:26:00,69.2,68.0,30.04,SE,143,0.0,0.0,96,0.00,,,0.00,0.0,WUHU216DAVISVP2,2014-02-07 08:26:00,
2014-02-07 03:31:00,69.2,68.0,30.04,SE,143,0.0,0.0,96,0.00,,,0.00,0.0,WUHU216DAVISVP2,2014-02-07 08:31:00,
2014-02-07 03:36:00,69.1,67.9,30.05,SE,143,0.0,0.0,96,0.00,,,0.00,0.0,WUHU216DAVISVP2,2014-02-07 08:36:00,
2014-02-07 03:41:00,69.3,68.1,30.05,SE,143,0.0,1.0,96,0.00,,,0.00,0.0,WUHU216DAVISVP2,2014-02-07 08:41:00,
2014-02-07 03:46:00,69.6,68.7,30.05,SE,143,0.0,1.0,97,0.00,,,0.00,0.0,WUHU216DAVISVP2,2014-02-07 08:46:00,
2014-02-07 03:51:00,70.0,68.8,30.05,South,178,0.0,1.0,96,0.00,,,0.00,0.0,WUHU216DAVISVP2,2014-02-07 08:51:00,
2014-02-07 03:56:00,70.2,69.3,30.05,WNW,288,0.0,1.0,97,0.00,,,0.00,0.0,WUHU216DAVISVP2,2014-02-07 08:56:00,
2014-02-07 04:01:00,70.3,69.1,30.05,WNW,288,0.0,2.0,96,0.00,,,0.00,0.0,WUHU216DAVISVP2,2014-02-07 09:01:00,
2014-02-07 04:06:00,70.4,69.2,30.05,WNW,288,0.0,2.0,96,0.00,,,0.00,0.0,WUHU216DAVISVP2,2014-02-07 09:06:00,
2014-02-07 04:11:00,70.6,69.4,30.05,WNW,286,0.0,3.0,96,0.00,,,0.00,0.0,WUHU216DAVISVP2,2014-02-07 09:11:00,
2014-02-07 04:16:00,70.8,69.9,30.05,WNW,286,2.0,3.0,97,0.00,,,0.00,0.0,WUHU216DAVISVP2,2014-02-07 09:16:00,
2014-02-07 04:21:00,71.0,70.1,30.05,WNW,286,1.0,3.0,97,0.00,,,0.00,0.0,WUHU216DAVISVP2,2014-02-07 09:21:00,
2014-02-07 04:26:00,71.2,70.0,30.06,WNW,286,0.0,3.0,96,0.00,,,0.00,0.0,WUHU216DAVISVP2,2014-02-07 09:26:00,
2014-02-07 04:31:00,71.3,70.1,30.05,WNW,286,0.0,3.0,96,0.00,,,0.00,0.0,WUHU216DAVISVP2,2014-02-07 09:31:00,
2014-02-07 04:37:00,71.5,70.6,30.06,WNW,286,0.0,3.0,97,0.00,,,0.00,0.0,WUHU216DAVISVP2,2014-02-07 09:37:00,
2014-02-07 04:42:00,71.6,70.7,30.06,WNW,286,0.0,3.0,97,0.00,,,0.00,0.0,WUHU216DAVISVP2,2014-02-07 09:42:00,
2014-02-07 04:47:00,71.8,70.9,30.06,WNW,286,0.0,2.0,97,0.00,,,0.00,0.0,WUHU216DAVISVP2,2014-02-07 09:47:00,
2014-02-07 04:52:00,71.9,71.0,30.05,WNW,286,0.0,2.0,97,0.00,,,0.00,0.0,WUHU216DAVISVP2,2014-02-07 09:52:00,
2014-02-07 04:57:00,71.9,71.0,30.05,WNW,286,0.0,2.0,97,0.00,,,0.00,0.0,WUHU216DAVISVP2,2014-02-07 09:57:00,
2014-02-07 05:02:00,72.1,71.2,30.05,WNW,286,0.0,3.0,97,0.00,,,0.00,0.0,WUHU216DAVISVP2,2014-02-07 10:02:00,
2014-02-07 05:07:00,72.0,70.8,30.06,NNE,25,4.0,4.0,96,0.00,,,0.00,0.0,WUHU216DAVISVP2,2014-02-07 10:07:00,
2014-02-07 05:12:00,71.8,70.6,30.06,North,355,4.0,5.0,96,0.00,,,0.00,0.0,WUHU216DAVISVP2,2014-02-07 10:12:00,
2014-02-07 05:17:00,71.7,70.5,30.06,North,5,1.0,5.0,96,0.00,,,0.00,0.0,WUHU216DAVISVP2,2014-02-07 10:17:00,
2014-02-07 05:22:00,71.6,70.7,30.06,North,360,1.0,5.0,97,0.00,,,0.00,0.0,WUHU216DAVISVP2,2014-02-07 10:22:00,
2014-02-07 05:27:00,71.4,70.5,30.06,North,355,2.0,5.0,97,0.00,,,0.00,0.0,WUHU216DAVISVP2,2014-02-07 10:27:00,
2014-02-07 05:32:00,71.3,70.1,30.06,NNW,338,0.0,3.0,96,0.00,,,0.00,0.0,WUHU216DAVISVP2,2014-02-07 10:32:00,
2014-02-07 05:37:00,71.4,70.5,30.06,NNW,338,0.0,3.0,97,0.00,,,0.00,0.0,WUHU216DAVISVP2,2014-02-07 10:37:00,
2014-02-07 05:42:00,71.3,70.1,30.06,North,355,1.0,3.0,96,0.00,,,0.00,0.0,WUHU216DAVISVP2,2014-02-07 10:42:00,
2014-02-07 05:47:00,71.1,69.9,30.07,North,5,0.0,3.0,96,0.00,,,0.00,0.0,WUHU216DAVISVP2,2014-02-07 10:47:00,
2014-02-07 05:53:00,71.1,69.9,30.07,NNE,28,0.0,3.0,96,0.00,,,0.00,0.0,WUHU216DAVISVP2,2014-02-07 10:53:00,
2014-02-07 05:58:00,71.0,69.8,30.07,NNE,26,0.0,3.0,96,0.00,,,0.00,0.0,WUHU216DAVISVP2,2014-02-07 10:58:00,
2014-02-07 06:03:00,71.0,70.1,30.07,NNE,22,1.0,3.0,97,0.00,,,0.00,0.0,WUHU216DAVISVP2,2014-02-07 11:03:00,
2014-02-07 06:08:00,71.0,70.1,30.07,NNE,30,2.0,3.0,97,0.00,,,0.00,0.0,WUHU216DAVISVP2,2014-02-07 11:08:00,
2014-02-07 06:13:00,70.9,70.0,30.07,NNE,32,1.0,5.0,97,0.00,,,0.00,0.0,WUHU216DAVISVP2,2014-02-07 11:13:00,
2014-02-07 06:18:00,70.8,69.9,30.08,NNE,17,2.0,5.0,97,0.00,,,0.00,0.0,WUHU216DAVISVP2,2014-02-07 11:18:00,
2014-02-07 06:23:00,70.7,69.5,30.08,NNW,334,0.0,5.0,96,0.00,,,0.00,0.0,WUHU216DAVISVP2,2014-02-07 11:23:00,
2014-02-07 06:28:00,70.6,69.4,30.08,NNE,26,4.0,5.0,96,0.00,,,0.00,0.0,WUHU216DAVISVP2,2014-02-07 11:28:00,
2014-02-07 06:33:00,70.5,69.3,30.08,NNE,15,2.0,5.0,96,0.00,,,0.00,0.0,WUHU216DAVISVP2,2014-02-07 11:33:00,
2014-02-07 06:38:00,70.2,69.3,30.08,NNE,17,0.0,5.0,97,0.00,,,0.00,0.0,WUHU216DAVISVP2,2014-02-07 11:38:00,
2014-02-07 06:43:00,70.1,69.2,30.08,NNE,16,1.0,5.0,97,0.00,,,0.00,0.0,WUHU216DAVISVP2,2014-02-07 11:43:00,
2014-02-07 06:48:00,69.9,68.7,30.08,NNE,25,0.0,5.0,96,0.00,,,0.00,0.0,WUHU216DAVISVP2,2014-02-07 11:48:00,
2014-02-07 06:53:00,69.8,68.6,30.08,NNE,28,2.0,5.0,96,0.00,,,0.00,0.0,WUHU216DAVISVP2,2014-02-07 11:53:00,
2014-02-07 06:58:00,69.6,68.7,30.08,NNE,22,4.0,7.0,97,0.00,,,0.00,0.0,WUHU216DAVISVP2,2014-02-07 11:58:00,
2014-02-07 07:03:00,69.5,68.6,30.09,NW,325,3.0,7.0,97,0.00,,,0.00,0.0,WUHU216DAVISVP2,2014-02-07 12:03:00,
2014-02-07 07:08:00,69.4,68.2,30.09,NNE,12,1.0,7.0,96,0.00,,,0.00,0.0,WUHU216DAVISVP2,2014-02-07 12:08:00,
2014-02-07 07:13:00,69.3,68.1,30.09,NNE,24,6.0,6.0,96,0.00,,,0.00,0.0,WUHU216DAVISVP2,2014-02-07 12:13:00,
2014-02-07 07:18:00,69.1,67.9,30.09,NW,317,2.0,8.0,96,0.00,,,0.00,0.0,WUHU216DAVISVP2,2014-02-07 12:18:00,
2014-02-07 07:23:00,69.1,68.2,30.09,NNE,28,3.0,8.0,97,0.00,,,0.00,5.0,WUHU216DAVISVP2,2014-02-07 12:23:00,
2014-02-07 07:28:00,69.0,68.1,30.10,North,355,1.0,8.0,97,0.00,,,0.00,0.0,WUHU216DAVISVP2,2014-02-07 12:28:00,
2014-02-07 07:33:00,68.9,68.0,30.10,NNE,18,2.0,5.0,97,0.00,,,0.00,5.0,WUHU216DAVISVP2,2014-02-07 12:33:00,
2014-02-07 07:38:00,68.7,67.8,30.10,North,355,2.0,5.0,97,0.00,,,0.00,18.0,WUHU216DAVISVP2,2014-02-07 12:38:00,
2014-02-07 07:43:00,68.7,67.5,30.10,NW,322,0.0,5.0,96,0.00,,,0.00,14.0,WUHU216DAVISVP2,2014-02-07 12:43:00,
2014-02-07 07:48:00,68.7,67.8,30.10,NNW,342,1.0,5.0,97,0.00,,,0.00,35.0,WUHU216DAVISVP2,2014-02-07 12:48:00,
2014-02-07 07:53:00,68.7,67.8,30.10,North,355,1.0,4.0,97,0.00,,,0.00,26.0,WUHU216DAVISVP2,2014-02-07 12:53:00,
2014-02-07 07:58:00,68.8,67.9,30.10,NNW,336,2.0,4.0,97,0.00,,,0.00,40.0,WUHU216DAVISVP2,2014-02-07 12:58:00,
2014-02-07 08:03:00,68.7,67.8,30.11,NW,315,2.0,4.0,97,0.00,,,0.00,42.0,WUHU216DAVISVP2,2014-02-07 13:03:00,
2014-02-07 08:08:00,68.8,67.9,30.11,NW,321,1.0,4.0,97,0.00,,,0.00,47.0,WUHU216DAVISVP2,2014-02-07 13:08:00,
2014-02-07 08:13:00,68.9,68.0,30.11,NNW,329,1.0,4.0,97,0.00,,,0.00,49.0,WUHU216DAVISVP2,2014-02-07 13:13:00,
2014-02-07 08:18:00,68.8,67.9,30.11,NW,322,1.0,4.0,97,0.00,,,0.00,44.0,WUHU216DAVISVP2,2014-02-07 13:18:00,
2014-02-07 08:23:00,68.9,68.0,30.11,NNE,19,3.0,4.0,97,0.00,,,0.00,58.0,WUHU216DAVISVP2,2014-02-07 13:23:00,
2014-02-07 08:28:00,69.0,68.1,30.11,NW,322,2.0,4.0,97,0.00,,,0.00,62.0,WUHU216DAVISVP2,2014-02-07 13:28:00,
2014-02-07 08:33:00,69.0,68.1,30.11,NNW,328,2.0,4.0,97,0.00,,,0.00,86.0,WUHU216DAVISVP2,2014-02-07 13:33:00,
2014-02-07 08:38:00,68.9,68.0,30.12,ENE,76,3.0,4.0,97,0.00,,,0.00,86.0,WUHU216DAVISVP2,2014-02-07 13:38:00,
2014-02-07 08:43:00,69.2,68.3,30.12,North,5,0.0,4.0,97,0.00,,,0.00,105.0,WUHU216DAVISVP2,2014-02-07 13:43:00,
2014-02-07 08:48:00,69.9,69.0,30.12,North,5,2.0,4.0,97,0.00,,,0.00,248.0,WUHU216DAVISVP2,2014-02-07 13:48:00,
2014-02-07 08:54:00,70.0,68.8,30.12,North,11,2.0,4.0,96,0.00,,,0.00,158.0,WUHU216DAVISVP2,2014-02-07 13:54:00,
2014-02-07 08:59:00,69.9,68.7,30.12,NNE,17,3.0,5.0,96,0.00,,,0.00,162.0,WUHU216DAVISVP2,2014-02-07 13:59:00,
2014-02-07 09:04:00,70.0,68.8,30.13,ENE,66,1.0,5.0,96,0.00,,,0.00,211.0,WUHU216DAVISVP2,2014-02-07 14:04:00,
2014-02-07 09:09:00,70.4,69.2,30.13,NE,40,3.0,5.0,96,0.00,,,0.00,156.0,WUHU216DAVISVP2,2014-02-07 14:09:00,
2014-02-07 09:14:00,70.3,69.1,30.13,North,5,2.0,5.0,96,0.00,,,0.00,148.0,WUHU216DAVISVP2,2014-02-07 14:14:00,
2014-02-07 09:19:00,69.9,68.4,30.13,NNW,332,2.0,5.0,95,0.00,,,0.00,139.0,WUHU216DAVISVP2,2014-02-07 14:19:00,
2014-02-07 09:24:00,69.9,68.7,30.13,NE,46,3.0,5.0,96,0.00,,,0.00,158.0,WUHU216DAVISVP2,2014-02-07 14:24:00,
2014-02-07 09:29:00,69.9,68.4,30.13,NNE,24,1.0,5.0,95,0.00,,,0.00,162.0,WUHU216DAVISVP2,2014-02-07 14:29:00,
2014-02-07 09:34:00,69.9,68.4,30.13,NNE,24,0.0,5.0,95,0.00,,,0.00,251.0,WUHU216DAVISVP2,2014-02-07 14:34:00,
2014-02-07 09:39:00,70.7,69.5,30.13,ENE,61,1.0,6.0,96,0.00,,,0.00,276.0,WUHU216DAVISVP2,2014-02-07 14:39:00,
2014-02-07 09:44:00,71.2,69.7,30.13,NE,41,1.0,6.0,95,0.00,,,0.00,308.0,WUHU216DAVISVP2,2014-02-07 14:44:00,
2014-02-07 09:49:00,71.7,69.8,30.13,NE,53,2.0,6.0,94,0.00,,,0.00,172.0,WUHU216DAVISVP2,2014-02-07 14:49:00,
2014-02-07 09:54:00,71.4,69.6,30.13,NE,34,3.0,6.0,94,0.00,,,0.00,348.0,WUHU216DAVISVP2,2014-02-07 14:54:00,
2014-02-07 09:59:00,72.3,70.1,30.13,NNE,18,2.0,6.0,93,0.00,,,0.00,485.0,WUHU216DAVISVP2,2014-02-07 14:59:00,
2014-02-07 10:04:00,73.6,71.7,30.13,NNE,13,4.0,6.0,94,0.00,,,0.00,726.0,WUHU216DAVISVP2,2014-02-07 15:04:00,
2014-02-07 10:09:00,73.2,70.1,30.13,North,5,0.0,6.0,90,0.00,,,0.00,670.0,WUHU216DAVISVP2,2014-02-07 15:09:00,
2014-02-07 10:14:00,74.4,71.3,30.13,NNE,21,1.0,6.0,90,0.00,,,0.00,345.0,WUHU216DAVISVP2,2014-02-07 15:14:00,
2014-02-07 10:19:00,75.0,70.9,30.13,NE,34,0.0,6.0,87,0.00,,,0.00,714.0,WUHU216DAVISVP2,2014-02-07 15:19:00,
2014-02-07 10:24:00,75.7,71.9,30.13,NE,36,1.0,5.0,88,0.00,,,0.00,686.0,WUHU216DAVISVP2,2014-02-07 15:24:00,
2014-02-07 10:29:00,75.9,71.1,30.13,North,10,3.0,5.0,85,0.00,,,0.00,671.0,WUHU216DAVISVP2,2014-02-07 15:29:00,
2014-02-07 10:34:00,77.1,72.3,30.13,NW,312,0.0,5.0,85,0.00,,,0.00,837.0,WUHU216DAVISVP2,2014-02-07 15:34:00,
2014-02-07 10:39:00,77.2,71.7,30.13,North,360,0.0,5.0,83,0.00,,,0.00,241.0,WUHU216DAVISVP2,2014-02-07 15:39:00,
2014-02-07 10:44:00,75.7,70.6,30.13,NNW,327,0.0,5.0,84,0.00,,,0.00,183.0,WUHU216DAVISVP2,2014-02-07 15:44:00,
2014-02-07 10:49:00,76.7,71.8,30.13,NW,315,2.0,5.0,85,0.00,,,0.00,455.0,WUHU216DAVISVP2,2014-02-07 15:49:00,
2014-02-07 10:54:00,76.7,70.9,30.13,NNE,12,0.0,5.0,82,0.00,,,0.00,258.0,WUHU216DAVISVP2,2014-02-07 15:54:00,
2014-02-07 10:59:00,76.0,70.9,30.13,NNE,17,1.0,5.0,84,0.00,,,0.00,216.0,WUHU216DAVISVP2,2014-02-07 15:59:00,
2014-02-07 11:04:00,75.8,71.0,30.12,NNE,26,2.0,5.0,85,0.00,,,0.00,264.0,WUHU216DAVISVP2,2014-02-07 16:04:00,
2014-02-07 11:09:00,77.2,72.4,30.12,NNW,342,2.0,5.0,85,0.00,,,0.00,809.0,WUHU216DAVISVP2,2014-02-07 16:09:00,
2014-02-07 11:14:00,78.3,72.1,30.12,NNE,30,1.0,6.0,81,0.00,,,0.00,777.0,WUHU216DAVISVP2,2014-02-07 16:14:00,
2014-02-07 11:19:00,79.7,73.1,30.12,NNE,13,1.0,6.0,80,0.00,,,0.00,773.0,WUHU216DAVISVP2,2014-02-07 16:19:00,
2014-02-07 11:24:00,79.8,72.8,30.12,NW,323,4.0,6.0,79,0.00,,,0.00,777.0,WUHU216DAVISVP2,2014-02-07 16:24:00,
2014-02-07 11:29:00,79.0,72.1,30.12,NNE,29,3.0,6.0,79,0.00,,,0.00,786.0,WUHU216DAVISVP2,2014-02-07 16:29:00,
2014-02-07 11:34:00,79.1,72.4,30.11,NNE,15,1.0,5.0,80,0.00,,,0.00,754.0,WUHU216DAVISVP2,2014-02-07 16:34:00,
2014-02-07 11:39:00,80.3,73.6,30.12,NNE,13,0.0,5.0,80,0.00,,,0.00,821.0,WUHU216DAVISVP2,2014-02-07 16:39:00,
2014-02-07 11:45:00,81.1,72.8,30.11,NNW,327,2.0,7.0,76,0.00,,,0.00,840.0,WUHU216DAVISVP2,2014-02-07 16:45:00,
2014-02-07 11:50:00,79.7,71.8,30.11,ENE,69,0.0,7.0,77,0.00,,,0.00,860.0,WUHU216DAVISVP2,2014-02-07 16:50:00,
2014-02-07 11:55:00,81.0,72.9,30.11,East,79,3.0,6.0,76,0.00,,,0.00,944.0,WUHU216DAVISVP2,2014-02-07 16:55:00,
2014-02-07 12:00:00,81.4,72.9,30.11,NE,48,0.0,6.0,75,0.00,,,0.00,1002.0,WUHU216DAVISVP2,2014-02-07 17:00:00,
2014-02-07 12:05:00,80.7,71.8,30.11,West,272,2.0,4.0,74,0.00,,,0.00,1000.0,WUHU216DAVISVP2,2014-02-07 17:05:00,
2014-02-07 12:10:00,80.3,71.8,30.10,ENE,72,2.0,4.0,75,0.00,,,0.00,248.0,WUHU216DAVISVP2,2014-02-07 17:10:00,
2014-02-07 12:15:00,79.3,71.2,30.10,East,82,0.0,4.0,76,0.00,,,0.00,192.0,WUHU216DAVISVP2,2014-02-07 17:15:00,
2014-02-07 12:20:00,79.7,72.2,30.10,NE,44,1.0,4.0,78,0.00,,,0.00,276.0,WUHU216DAVISVP2,2014-02-07 17:20:00,
2014-02-07 12:25:00,80.4,72.3,30.10,North,5,1.0,4.0,76,0.00,,,0.00,285.0,WUHU216DAVISVP2,2014-02-07 17:25:00,
2014-02-07 12:30:00,80.6,72.1,30.09,ENE,61,0.0,4.0,75,0.00,,,0.00,406.0,WUHU216DAVISVP2,2014-02-07 17:30:00,
2014-02-07 12:35:00,80.8,72.7,30.09,NNE,15,3.0,5.0,76,0.00,,,0.00,283.0,WUHU216DAVISVP2,2014-02-07 17:35:00,
2014-02-07 12:40:00,80.7,72.2,30.09,NNE,32,0.0,7.0,75,0.00,,,0.00,209.0,WUHU216DAVISVP2,2014-02-07 17:40:00,
2014-02-07 12:45:00,79.6,71.2,30.09,East,90,3.0,7.0,75,0.00,,,0.00,299.0,WUHU216DAVISVP2,2014-02-07 17:45:00,
2014-02-07 12:50:00,80.4,72.5,30.08,NE,36,0.0,6.0,77,0.00,,,0.00,464.0,WUHU216DAVISVP2,2014-02-07 17:50:00,
2014-02-07 12:55:00,80.3,72.2,30.08,East,98,2.0,6.0,76,0.00,,,0.00,239.0,WUHU216DAVISVP2,2014-02-07 17:55:00,
2014-02-07 13:00:00,80.3,73.0,30.08,East,79,0.0,6.0,78,0.00,,,0.00,963.0,WUHU216DAVISVP2,2014-02-07 18:00:00,
2014-02-07 13:05:00,81.0,73.3,30.08,NE,39,0.0,6.0,77,0.00,,,0.00,965.0,WUHU216DAVISVP2,2014-02-07 18:05:00,
2014-02-07 13:10:00,82.1,73.6,30.08,ENE,71,4.0,6.0,75,0.00,,,0.00,1013.0,WUHU216DAVISVP2,2014-02-07 18:10:00,
2014-02-07 13:15:00,81.8,72.9,30.07,North,9,0.0,8.0,74,0.00,,,0.00,431.0,WUHU216DAVISVP2,2014-02-07 18:15:00,
2014-02-07 13:20:00,81.9,73.0,30.07,SW,221,1.0,8.0,74,0.00,,,0.00,1037.0,WUHU216DAVISVP2,2014-02-07 18:20:00,
2014-02-07 13:25:00,81.5,72.6,30.07,East,88,0.0,8.0,74,0.00,,,0.00,1053.0,WUHU216DAVISVP2,2014-02-07 18:25:00,
2014-02-07 13:30:00,82.1,72.4,30.07,SSE,163,1.0,8.0,72,0.00,,,0.00,965.0,WUHU216DAVISVP2,2014-02-07 18:30:00,
2014-02-07 13:35:00,82.6,72.1,30.07,SSW,204,3.0,7.0,70,0.00,,,0.00,889.0,WUHU216DAVISVP2,2014-02-07 18:35:00,
2014-02-07 13:40:00,82.6,71.8,30.06,ESE,105,1.0,7.0,70,0.00,,,0.00,860.0,WUHU216DAVISVP2,2014-02-07 18:40:00,
2014-02-07 13:45:00,82.4,72.3,30.06,SSE,166,0.0,7.0,71,0.00,,,0.00,847.0,WUHU216DAVISVP2,2014-02-07 18:45:00,
2014-02-07 13:50:00,82.5,71.7,30.06,East,98,3.0,7.0,70,0.00,,,0.00,835.0,WUHU216DAVISVP2,2014-02-07 18:50:00,
2014-02-07 13:56:00,82.8,72.0,30.06,East,87,2.0,8.0,70,0.00,,,0.00,817.0,WUHU216DAVISVP2,2014-02-07 18:56:00,
2014-02-07 14:01:00,83.1,72.1,30.05,WSW,239,2.0,8.0,69,0.00,,,0.00,828.0,WUHU216DAVISVP2,2014-02-07 19:01:00,
2014-02-07 14:06:00,83.0,71.6,30.05,SSE,157,0.0,8.0,68,0.00,,,0.00,914.0,WUHU216DAVISVP2,2014-02-07 19:06:00,
2014-02-07 14:11:00,82.0,71.1,30.05,ESE,104,0.0,8.0,69,0.00,,,0.00,174.0,WUHU216DAVISVP2,2014-02-07 19:11:00,
2014-02-07 14:16:00,81.7,70.8,30.05,South,188,2.0,6.0,69,0.00,,,0.00,139.0,WUHU216DAVISVP2,2014-02-07 19:16:00,
2014-02-07 14:21:00,81.5,70.8,30.05,SW,221,3.0,6.0,70,0.00,,,0.00,220.0,WUHU216DAVISVP2,2014-02-07 19:21:00,
2014-02-07 14:26:00,81.5,71.0,30.05,SSW,194,1.0,6.0,70,0.00,,,0.00,169.0,WUHU216DAVISVP2,2014-02-07 19:26:00,
2014-02-07 14:31:00,81.6,70.7,30.05,ENE,76,0.0,6.0,69,0.00,,,0.00,199.0,WUHU216DAVISVP2,2014-02-07 19:31:00,
2014-02-07 14:36:00,81.6,71.5,30.05,SE,127,0.0,5.0,71,0.00,,,0.00,216.0,WUHU216DAVISVP2,2014-02-07 19:36:00,
2014-02-07 14:41:00,81.2,70.7,30.05,East,81,0.0,5.0,70,0.00,,,0.00,172.0,WUHU216DAVISVP2,2014-02-07 19:41:00,
2014-02-07 14:46:00,80.9,71.0,30.05,ESE,119,4.0,5.0,72,0.00,,,0.00,163.0,WUHU216DAVISVP2,2014-02-07 19:46:00,
2014-02-07 14:51:00,81.5,72.2,30.05,SSE,166,0.0,4.0,73,0.00,,,0.00,178.0,WUHU216DAVISVP2,2014-02-07 19:51:00,
2014-02-07 14:56:00,81.3,71.2,30.05,South,189,2.0,4.0,71,0.00,,,0.00,77.0,WUHU216DAVISVP2,2014-02-07 19:56:00,
2014-02-07 15:01:00,80.7,71.0,30.04,East,90,0.0,5.0,72,0.00,,,0.00,93.0,WUHU216DAVISVP2,2014-02-07 20:01:00,
2014-02-07 15:06:00,81.3,71.2,30.04,SSW,192,0.0,5.0,71,0.00,,,0.00,86.0,WUHU216DAVISVP2,2014-02-07 20:06:00,
2014-02-07 15:11:00,80.7,71.0,30.04,SSE,151,0.0,5.0,72,0.00,,,0.00,90.0,WUHU216DAVISVP2,2014-02-07 20:11:00,
2014-02-07 15:16:00,80.7,71.0,30.04,SSW,213,4.0,5.0,72,0.00,,,0.00,97.0,WUHU216DAVISVP2,2014-02-07 20:16:00,
2014-02-07 15:21:00,81.2,70.9,30.04,ESE,119,0.0,5.0,71,0.00,,,0.00,91.0,WUHU216DAVISVP2,2014-02-07 20:21:00,
2014-02-07 15:26:00,81.7,70.8,30.04,ENE,76,2.0,5.0,69,0.00,,,0.00,90.0,WUHU216DAVISVP2,2014-02-07 20:26:00,
2014-02-07 15:31:00,81.9,70.1,30.04,SE,134,0.0,5.0,67,0.00,,,0.00,79.0,WUHU216DAVISVP2,2014-02-07 20:31:00,
2014-02-07 15:36:00,81.7,70.8,30.04,SSE,148,0.0,5.0,69,0.00,,,0.00,72.0,WUHU216DAVISVP2,2014-02-07 20:36:00,
2014-02-07 15:41:00,81.0,70.5,30.04,South,182,0.0,5.0,70,0.00,,,0.00,56.0,WUHU216DAVISVP2,2014-02-07 20:41:00,
2014-02-07 15:46:00,80.6,70.5,30.04,SSW,205,0.0,4.0,71,0.00,,,0.00,63.0,WUHU216DAVISVP2,2014-02-07 20:46:00,
2014-02-07 15:51:00,80.4,69.9,30.04,South,180,0.0,4.0,70,0.00,,,0.00,72.0,WUHU216DAVISVP2,2014-02-07 20:51:00,
2014-02-07 15:56:00,80.4,69.9,30.05,ESE,115,0.0,2.0,70,0.00,,,0.00,91.0,WUHU216DAVISVP2,2014-02-07 20:56:00,
2014-02-07 16:01:00,80.5,70.0,30.05,East,98,0.0,3.0,70,0.00,,,0.00,141.0,WUHU216DAVISVP2,2014-02-07 21:01:00,
2014-02-07 16:06:00,81.4,70.7,30.05,SE,134,4.0,5.0,70,0.00,,,0.00,107.0,WUHU216DAVISVP2,2014-02-07 21:06:00,
2014-02-07 16:12:00,81.5,70.8,30.05,ESE,103,2.0,5.0,70,0.00,,,0.00,91.0,WUHU216DAVISVP2,2014-02-07 21:12:00,
2014-02-07 16:17:00,81.5,71.0,30.04,West,265,2.0,6.0,70,0.00,,,0.00,88.0,WUHU216DAVISVP2,2014-02-07 21:17:00,
2014-02-07 16:22:00,81.3,70.8,30.05,SSE,149,0.0,6.0,70,0.00,,,0.00,343.0,WUHU216DAVISVP2,2014-02-07 21:22:00,
2014-02-07 16:27:00,81.3,71.6,30.05,ESE,123,1.0,6.0,72,0.00,,,0.00,325.0,WUHU216DAVISVP2,2014-02-07 21:27:00,
2014-02-07 16:32:00,81.0,71.3,30.05,ESE,122,2.0,8.0,72,0.00,,,0.00,49.0,WUHU216DAVISVP2,2014-02-07 21:32:00,
2014-02-07 16:37:00,80.4,70.8,30.05,SE,130,0.0,8.0,72,0.00,,,0.00,51.0,WUHU216DAVISVP2,2014-02-07 21:37:00,
2014-02-07 16:42:00,80.0,71.2,30.05,SE,126,4.0,8.0,74,0.00,,,0.00,49.0,WUHU216DAVISVP2,2014-02-07 21:42:00,
2014-02-07 16:47:00,79.8,71.7,30.05,SE,139,2.0,6.0,76,0.00,,,0.00,86.0,WUHU216DAVISVP2,2014-02-07 21:47:00,
2014-02-07 16:52:00,79.5,71.4,30.05,ESE,115,1.0,6.0,76,0.00,,,0.00,42.0,WUHU216DAVISVP2,2014-02-07 21:52:00,
2014-02-07 16:57:00,79.2,71.1,30.05,SE,125,1.0,6.0,76,0.00,,,0.00,165.0,WUHU216DAVISVP2,2014-02-07 21:57:00,
2014-02-07 17:02:00,79.2,70.8,30.05,ESE,105,2.0,4.0,75,0.00,,,0.00,88.0,WUHU216DAVISVP2,2014-02-07 22:02:00,
2014-02-07 17:07:00,79.1,70.7,30.05,SSE,159,0.0,4.0,75,0.00,,,0.00,44.0,WUHU216DAVISVP2,2014-02-07 22:07:00,
2014-02-07 17:12:00,79.0,70.9,30.05,SE,141,0.0,4.0,76,0.00,,,0.00,44.0,WUHU216DAVISVP2,2014-02-07 22:12:00,
2014-02-07 17:17:00,78.8,71.1,30.05,East,97,0.0,5.0,77,0.00,,,0.00,40.0,WUHU216DAVISVP2,2014-02-07 22:17:00,
2014-02-07 17:22:00,78.6,70.9,30.05,East,87,2.0,5.0,77,0.00,,,0.00,28.0,WUHU216DAVISVP2,2014-02-07 22:22:00,
2014-02-07 17:27:00,78.5,71.2,30.05,East,93,0.0,5.0,78,0.00,,,0.00,39.0,WUHU216DAVISVP2,2014-02-07 22:27:00,
2014-02-07 17:32:00,78.4,71.1,30.06,ESE,106,0.0,7.0,78,0.00,,,0.00,32.0,WUHU216DAVISVP2,2014-02-07 22:32:00,
2014-02-07 17:37:00,78.2,71.3,30.06,ESE,117,1.0,7.0,79,0.00,,,0.00,25.0,WUHU216DAVISVP2,2014-02-07 22:37:00,
2014-02-07 17:42:00,78.1,71.2,30.06,ESE,106,0.0,7.0,79,0.00,,,0.00,16.0,WUHU216DAVISVP2,2014-02-07 22:42:00,
2014-02-07 17:47:00,77.9,71.3,30.06,ESE,107,1.0,6.0,80,0.00,,,0.00,11.0,WUHU216DAVISVP2,2014-02-07 22:47:00,
2014-02-07 17:52:00,77.7,71.5,30.06,ENE,65,0.0,6.0,81,0.00,,,0.00,9.0,WUHU216DAVISVP2,2014-02-07 22:52:00,
2014-02-07 17:57:00,77.5,71.3,30.07,East,98,1.0,4.0,81,0.00,,,0.00,7.0,WUHU216DAVISVP2,2014-02-07 22:57:00,
2014-02-07 18:02:00,77.3,71.5,30.07,East,89,0.0,4.0,82,0.00,,,0.00,5.0,WUHU216DAVISVP2,2014-02-07 23:02:00,
2014-02-07 18:07:00,77.3,71.5,30.07,ESE,104,0.0,4.0,82,0.00,,,0.00,0.0,WUHU216DAVISVP2,2014-02-07 23:07:00,
2014-02-07 18:12:00,77.3,71.8,30.07,ESE,104,0.0,4.0,83,0.00,,,0.00,0.0,WUHU216DAVISVP2,2014-02-07 23:12:00,
2014-02-07 18:17:00,77.2,71.7,30.07,East,100,0.0,4.0,83,0.00,,,0.00,0.0,WUHU216DAVISVP2,2014-02-07 23:17:00,
2014-02-07 18:22:00,77.2,71.7,30.07,East,94,0.0,3.0,83,0.00,,,0.00,0.0,WUHU216DAVISVP2,2014-02-07 23:22:00,
2014-02-07 18:27:00,77.0,71.5,30.07,East,85,0.0,2.0,83,0.00,,,0.00,0.0,WUHU216DAVISVP2,2014-02-07 23:27:00,
2014-02-07 18:32:00,76.9,71.7,30.07,ESE,111,2.0,3.0,84,0.00,,,0.00,0.0,WUHU216DAVISVP2,2014-02-07 23:32:00,
2014-02-07 18:38:00,76.9,71.7,30.06,ESE,105,1.0,5.0,84,0.00,,,0.00,0.0,WUHU216DAVISVP2,2014-02-07 23:38:00,
2014-02-07 18:43:00,76.8,71.7,30.07,ESE,105,1.0,6.0,84,0.00,,,0.00,0.0,WUHU216DAVISVP2,2014-02-07 23:43:00,
2014-02-07 18:48:00,76.7,71.6,30.07,East,101,1.0,6.0,84,0.00,,,0.00,0.0,WUHU216DAVISVP2,2014-02-07 23:48:00,
2014-02-07 18:53:00,76.6,71.8,30.07,ESE,112,0.0,6.0,85,0.00,,,0.00,0.0,WUHU216DAVISVP2,2014-02-07 23:53:00,
2014-02-07 18:58:00,76.5,71.7,30.07,East,96,1.0,6.0,85,0.00,,,0.00,0.0,WUHU216DAVISVP2,2014-02-07 23:58:00,
2014-02-07 19:03:00,76.4,71.9,30.07,East,92,0.0,6.0,86,0.00,,,0.00,0.0,WUHU216DAVISVP2,2014-02-08 00:03:00,
2014-02-07 19:08:00,76.2,71.7,30.07,ESE,103,0.0,6.0,86,0.00,,,0.00,0.0,WUHU216DAVISVP2,2014-02-08 00:08:00,
2014-02-07 19:13:00,75.9,71.4,30.07,East,93,1.0,4.0,86,0.00,,,0.00,0.0,WUHU216DAVISVP2,2014-02-08 00:13:00,
2014-02-07 19:18:00,75.8,71.7,30.07,ESE,103,3.0,4.0,87,0.00,,,0.00,0.0,WUHU216DAVISVP2,2014-02-08 00:18:00,
2014-02-07 19:23:00,75.8,71.7,30.07,East,87,0.0,4.0,87,0.00,,,0.00,0.0,WUHU216DAVISVP2,2014-02-08 00:23:00,
2014-02-07 19:28:00,75.7,71.9,30.08,East,81,0.0,4.0,88,0.00,,,0.00,0.0,WUHU216DAVISVP2,2014-02-08 00:28:00,
2014-02-07 19:33:00,75.7,71.9,30.08,ENE,72,0.0,4.0,88,0.00,,,0.00,0.0,WUHU216DAVISVP2,2014-02-08 00:33:00,
2014-02-07 19:38:00,75.5,71.7,30.08,NNE,33,1.0,3.0,88,0.00,,,0.00,0.0,WUHU216DAVISVP2,2014-02-08 00:38:00,
2014-02-07 19:43:00,75.4,71.6,30.08,East,82,0.0,3.0,88,0.00,,,0.00,0.0,WUHU216DAVISVP2,2014-02-08 00:43:00,
2014-02-07 19:48:00,75.4,71.6,30.08,ENE,75,1.0,3.0,88,0.00,,,0.00,0.0,WUHU216DAVISVP2,2014-02-08 00:48:00,
2014-02-07 19:53:00,75.3,71.5,30.08,ENE,76,0.0,3.0,88,0.00,,,0.00,0.0,WUHU216DAVISVP2,2014-02-08 00:53:00,
2014-02-07 19:58:00,75.3,71.8,30.08,East,81,0.0,3.0,89,0.00,,,0.00,0.0,WUHU216DAVISVP2,2014-02-08 00:58:00,
2014-02-07 20:03:00,75.4,71.9,30.08,NNE,18,0.0,3.0,89,0.00,,,0.00,0.0,WUHU216DAVISVP2,2014-02-08 01:03:00,
2014-02-07 20:08:00,75.5,72.0,30.08,NE,46,2.0,8.0,89,0.00,,,0.00,0.0,WUHU216DAVISVP2,2014-02-08 01:08:00,
2014-02-07 20:13:00,75.4,71.9,30.08,NNE,16,1.0,8.0,89,0.00,,,0.00,0.0,WUHU216DAVISVP2,2014-02-08 01:13:00,
2014-02-07 20:18:00,75.2,71.7,30.08,ENE,59,1.0,8.0,89,0.00,,,0.00,0.0,WUHU216DAVISVP2,2014-02-08 01:18:00,
2014-02-07 20:23:00,74.9,71.8,30.08,NNE,29,2.0,8.0,90,0.00,,,0.00,0.0,WUHU216DAVISVP2,2014-02-08 01:23:00,
2014-02-07 20:28:00,74.6,71.5,30.08,ENE,59,1.0,7.0,90,0.00,,,0.00,0.0,WUHU216DAVISVP2,2014-02-08 01:28:00,
2014-02-07 20:33:00,74.4,71.3,30.09,NE,47,2.0,6.0,90,0.00,,,0.00,0.0,WUHU216DAVISVP2,2014-02-08 01:33:00,
2014-02-07 20:38:00,74.2,71.1,30.08,North,360,2.0,6.0,90,0.00,,,0.00,0.0,WUHU216DAVISVP2,2014-02-08 01:38:00,
2014-02-07 20:43:00,74.0,70.9,30.09,NE,55,0.0,5.0,90,0.00,,,0.00,0.0,WUHU216DAVISVP2,2014-02-08 01:43:00,
2014-02-07 20:48:00,73.8,70.7,30.09,NE,34,0.0,5.0,90,0.00,,,0.00,0.0,WUHU216DAVISVP2,2014-02-08 01:48:00,
2014-02-07 20:53:00,73.7,70.9,30.09,NE,39,1.0,4.0,91,0.00,,,0.00,0.0,WUHU216DAVISVP2,2014-02-08 01:53:00,
2014-02-07 20:58:00,73.6,70.8,30.09,NNE,28,0.0,4.0,91,0.00,,,0.00,0.0,WUHU216DAVISVP2,2014-02-08 01:58:00,
2014-02-07 21:03:00,73.3,70.5,30.09,ENE,74,0.0,4.0,91,0.00,,,0.00,0.0,WUHU216DAVISVP2,2014-02-08 02:03:00,
2014-02-07 21:08:00,73.2,70.4,30.09,ENE,61,0.0,4.0,91,0.00,,,0.00,0.0,WUHU216DAVISVP2,2014-02-08 02:08:00,
2014-02-07 21:13:00,73.1,70.3,30.09,NE,55,1.0,3.0,91,0.00,,,0.00,0.0,WUHU216DAVISVP2,2014-02-08 02:13:00,
2014-02-07 21:18:00,73.0,70.2,30.09,ENE,69,0.0,5.0,91,0.00,,,0.00,0.0,WUHU216DAVISVP2,2014-02-08 02:18:00,
2014-02-07 21:24:00,72.9,70.1,30.09,ENE,68,0.0,5.0,91,0.00,,,0.00,0.0,WUHU216DAVISVP2,2014-02-08 02:24:00,
2014-02-07 21:29:00,72.8,70.3,30.09,East,94,0.0,5.0,92,0.00,,,0.00,0.0,WUHU216DAVISVP2,2014-02-08 02:29:00,
2014-02-07 21:34:00,72.7,70.2,30.09,NNE,28,0.0,5.0,92,0.00,,,0.00,0.0,WUHU216DAVISVP2,2014-02-08 02:34:00,
2014-02-07 21:39:00,72.7,70.2,30.09,East,82,3.0,5.0,92,0.00,,,0.00,0.0,WUHU216DAVISVP2,2014-02-08 02:39:00,
2014-02-07 21:44:00,72.6,70.1,30.09,NNE,33,2.0,5.0,92,0.00,,,0.00,0.0,WUHU216DAVISVP2,2014-02-08 02:44:00,
2014-02-07 21:49:00,72.5,70.0,30.09,NNE,24,2.0,4.0,92,0.00,,,0.00,0.0,WUHU216DAVISVP2,2014-02-08 02:49:00,
2014-02-07 21:54:00,72.5,70.0,30.09,NE,56,1.0,5.0,92,0.00,,,0.00,0.0,WUHU216DAVISVP2,2014-02-08 02:54:00,
2014-02-07 21:59:00,72.4,69.9,30.09,NE,49,1.0,5.0,92,0.00,,,0.00,0.0,WUHU216DAVISVP2,2014-02-08 02:59:00,
2014-02-07 22:04:00,72.4,69.9,30.09,NNW,346,2.0,5.0,92,0.00,,,0.00,0.0,WUHU216DAVISVP2,2014-02-08 03:04:00,
2014-02-07 22:09:00,72.4,69.9,30.09,ENE,69,0.0,5.0,92,0.00,,,0.00,0.0,WUHU216DAVISVP2,2014-02-08 03:09:00,
2014-02-07 22:14:00,72.3,69.8,30.09,ENE,59,1.0,5.0,92,0.00,,,0.00,0.0,WUHU216DAVISVP2,2014-02-08 03:14:00,
2014-02-07 22:19:00,72.3,69.8,30.09,North,5,0.0,4.0,92,0.00,,,0.00,0.0,WUHU216DAVISVP2,2014-02-08 03:19:00,
2014-02-07 22:24:00,72.2,70.0,30.09,ENE,62,1.0,3.0,93,0.00,,,0.00,0.0,WUHU216DAVISVP2,2014-02-08 03:24:00,
2014-02-07 22:29:00,72.2,70.0,30.09,East,80,0.0,3.0,93,0.00,,,0.00,0.0,WUHU216DAVISVP2,2014-02-08 03:29:00,
2014-02-07 22:34:00,72.2,70.0,30.09,NNE,17,1.0,4.0,93,0.00,,,0.00,0.0,WUHU216DAVISVP2,2014-02-08 03:34:00,
2014-02-07 22:39:00,72.1,69.9,30.09,NNE,32,1.0,4.0,93,0.00,,,0.00,0.0,WUHU216DAVISVP2,2014-02-08 03:39:00,
2014-02-07 22:44:00,72.1,69.9,30.09,North,11,0.0,4.0,93,0.00,,,0.00,0.0,WUHU216DAVISVP2,2014-02-08 03:44:00,
2014-02-07 22:49:00,72.0,69.9,30.09,ENE,73,1.0,4.0,93,0.00,,,0.00,0.0,WUHU216DAVISVP2,2014-02-08 03:49:00,
2014-02-07 22:54:00,71.9,69.7,30.09,NE,34,0.0,4.0,93,0.00,,,0.00,0.0,WUHU216DAVISVP2,2014-02-08 03:54:00,
2014-02-07 22:59:00,71.9,69.8,30.09,NE,35,0.0,4.0,93,0.00,,,0.00,0.0,WUHU216DAVISVP2,2014-02-08 03:59:00,
2014-02-07 23:04:00,71.8,69.6,30.09,NE,49,0.0,3.0,93,0.00,,,0.00,0.0,WUHU216DAVISVP2,2014-02-08 04:04:00,
2014-02-07 23:09:00,71.8,70.0,30.09,NE,35,0.0,3.0,94,0.00,,,0.00,0.0,WUHU216DAVISVP2,2014-02-08 04:09:00,
2014-02-07 23:14:00,71.7,69.5,30.09,NE,35,1.0,3.0,93,0.00,,,0.00,0.0,WUHU216DAVISVP2,2014-02-08 04:14:00,
2014-02-07 23:19:00,71.6,69.8,30.09,NE,35,0.0,3.0,94,0.00,,,0.00,0.0,WUHU216DAVISVP2,2014-02-08 04:19:00,
2014-02-07 23:24:00,71.6,69.8,30.09,NE,53,1.0,3.0,94,0.00,,,0.00,0.0,WUHU216DAVISVP2,2014-02-08 04:24:00,
2014-02-07 23:29:00,71.6,69.8,30.09,NE,53,0.0,3.0,94,0.00,,,0.00,0.0,WUHU216DAVISVP2,2014-02-08 04:29:00,
2014-02-07 23:34:00,71.6,69.8,30.09,NE,53,0.0,3.0,94,0.00,,,0.00,0.0,WUHU216DAVISVP2,2014-02-08 04:34:00,
2014-02-07 23:39:00,71.4,69.6,30.09,NE,53,0.0,3.0,94,0.00,,,0.00,0.0,WUHU216DAVISVP2,2014-02-08 04:39:00,
2014-02-07 23:44:00,71.5,69.7,30.09,NE,53,0.0,1.0,94,0.00,,,0.00,0.0,WUHU216DAVISVP2,2014-02-08 04:44:00,
2014-02-07 23:49:00,71.4,69.6,30.09,NE,49,0.0,2.0,94,0.00,,,0.00,0.0,WUHU216DAVISVP2,2014-02-08 04:49:00,
2014-02-07 23:54:00,71.3,69.5,30.09,NE,49,0.0,2.0,94,0.00,,,0.00,0.0,WUHU216DAVISVP2,2014-02-08 04:54:00,
2014-02-07 23:59:00,71.3,69.5,30.09,NNE,33,0.0,2.0,94,0.00,,,0.00,0.0,WUHU216DAVISVP2,2014-02-08 04:59:00,